OBJECT K

Satellite information

Favourite Embed

Satellite Type and Status

UNKNOWNIN ORBIT

Key statistics

Satellite OBJECT K at a glance.

Uptime

869

Days in orbit

Revolutions

≈ 15.6

Per day

Orbit

SSO

Sun Synchronous Orbit

Inclination

97.5

Latest

Satellite identification and parameters

Extended collection of information and parameters for OBJECT K.

Object identification

Identified? True

Debris? False

Object name: OBJECT K

International designator: 2023-085K

Object number (NORAD): 57013

Object ID (CCSDS): 57013

Country: PEOPLES REPUBLIC OF CHINA (PRC)

Current information (Y/N): Y

RCS size: MEDIUM

Orbital parameters

Period: 92.174 minutes

Inclination: 97.4757 deg

SMA: 6759.248 km

Apoapsis: 381.755 km

Periapsis: 380.472 km

RAAN: 60.4229 deg

Eccentricy: 0.00009487

Argument of periapsis: 91.2667 deg

Mean anomaly: 268.8699 deg

Mean motion: 15.6226661 rev/day

Mean motion (dot): 0.00144117 rev/day2

B* drag term: 0.0016111969 1/REarth

Two-line elements (TLE)

Creation date: Oct. 31, 2025, 3 a.m.

Reference frame: TEME

Reference center: EARTH

Epoch: Oct. 30, 2025, 11:35 p.m. UTC

TLE line 0: 0 OBJECT K

TLE line 1: 1 57013U 23085K 25303.98294266 .00144117 00000-0 16112-2 0 9994

TLE line 2: 2 57013 97.4757 60.4229 0000949 91.2667 268.8699 15.62266610 62655

Live tracking on map

Real-time ground track for satellite OBJECT K.

In-orbit conjunctions

There are no conjunctions computed for OBJECT K, at the moment. Check back to stay up to date, as we update our databases every day.

Go to all conjunctions

Associated space launch

41 new satellites for the Jilin-1 commercial Earth observation satellites constellation. Satellites list: Jilin-1 GF-03D 19~26 Jilin-1 GF-06A 01~30 Jilin-1 PT-02A 01~02 Khorgas-1 (Jilin-1 IR-A ??)

OBJECT K was lifted into orbit during the mission ‘Long March 2D | 41 x Jilin-1’, on board a Long March 2D space rocket.

The launch took place on June 15, 2023, 5:30 a.m. from Launch Complex 9.

For more information about the launch, click the button.

Launch to space Long March 2D | 41 x Jilin-1
Long March 2D | 41 x Jilin-1

Agency: N/A

Status: Launch Successful

Launch date: June 15, 2023, 5:30 a.m. UTC

Rocket: Long March 2D

Launch pad: Launch Complex 9

Location: Taiyuan Satellite Launch Center, People's Republic of China

...

Latest news about this satellite

There are no fresh news available about this satellite. Check back as we update our databases every day.


Newsletter sign-up

Weekly statistics, charts and insights to help you stay on top of the space industry.